{"data":{"norad_id":58089,"epoch":"2026-05-24T23:20:22.185600Z","epoch_age_seconds":80895,"freshness":"FRESH","line1":"1 58089U 23160Q   26144.97247900 -.00000289  00000+0 -99157-6 0  9994","line2":"2 58089  43.0038   6.9602 0001223 273.9091  86.1620 15.27577498144616","mean_motion":15.27577498,"eccentricity":0.0001223,"inclination_deg":43.0038,"raan_deg":6.9602,"arg_perigee_deg":273.9091,"mean_anomaly_deg":86.162,"bstar":-9.9157e-7,"rev_number":14461,"period_min":94.266903111976,"perigee_km":482.21746396216,"apogee_km":483.89571191377,"semimajor_km":6861.193587938,"source":"CELESTRAK","updated_at":"2026-05-25T13:38:18.524020Z"}}